User: anonymous   Login
Location: Caltech
(34.1382°N, 118.1253°W)
Time: 21:50:18
(UTC-08:00)
Language:

Iridium 75 - Orbit

View from above orbital plane
View from above orbital plane
View from above satellite
View from above satellite

Ground track
Ground track

The orbit data is extracted from the following two-line orbital elements,

1 25346U 98032E   14353.25891409  .00000768  00000-0  26703-3 0  1147
2 25346 086.3972 244.8252 0002050 100.4010 031.0418 14.34224776869108
Epoch (UTC): 19 December 2014 06:12:50
Eccentricity: 0.0002050
inclination: 86.3972°
perigee height: 776 km
apogee height: 779 km
right ascension of ascending node: 244.8252°
argument of perigee: 100.4010°
revolutions per day: 14.34224776
mean anomaly at epoch: 31.0418°
orbit number at epoch: 86910

The dashed part of the orbit path shows where the satellite is in the earth's shadow,  

DLR